Orange Grove, TX

10:40 PM CST on February 20, 2017 (GMT -0600)
Orange Grove Naval Air Landing Field

Weather History for KNOG - March, 2014

Change the Weather History Date:

Friday, March 28, 2014

  Actual Average (KALI) Record (KALI)
Temperature  
Mean Temperature 80 °F -  
Max Temperature 93 °F 76 °F 93 °F (2014)
Min Temperature 68 °F 56 °F 44 °F (2005)
Cooling Degree Days 16    
Growing Degree Days 30 (Base 50)    
Moisture  
Dew Point 63 °F    
Average Humidity 71    
Maximum Humidity 100    
Minimum Humidity 22    
Precipitation  
Precipitation 0.00 in - - ()
Sea Level Pressure  
Sea Level Pressure 29.75 in    
Wind  
Wind Speed 9 mph (SSW)    
Max Wind Speed 24 mph    
Max Gust Speed 31 mph    
Visibility 6 miles    
Events Fog    
Averages and records for this station are not official NWS values.
T = Trace of Precipitation, MM = Missing Value Source: NWS Daily Summary

Daily Weather History Graph

Daily Weather History Graph

Search for Another Location

Airport or City:

Trip Planner

Search our weather history database for the weather conditions in past years. The results will help you decide how hot, cold, wet, or windy it might be!

Date:

Astronomy

Mar. 28, 2014 Rise Set
Actual Time 7:26 AM CDT 7:47 PM CDT
Civil Twilight 7:03 AM CDT 8:11 PM CDT
Nautical Twilight 6:36 AM CDT 8:38 PM CDT
Astronomical Twilight 6:08 AM CDT 9:06 PM CDT
Moon 5:47 AM CDT (3/28) 5:54 PM CDT (3/28)
Length of Visible Light 13h 07m
Length of Day
12h 20m
Waning Crescent, 6% of the Moon is Illuminated
Mar 28
Waning Crescent
Mar 30
New
Apr 7
First Quarter
Apr 15
Full
Apr 22
Last Quarter

Hourly Weather History & Observations

Time (CDT) Temp. Heat Index Dew Point Humidity Pressure Visibility Wind Dir Wind Speed Gust Speed Precip Events Conditions
12:56 AM 68.0 °F - 66.9 °F 96% 29.75 in 0.2 mi South 8.1 mph - N/A Fog Fog
1:56 AM 68.0 °F - 68.0 °F 100% 29.73 in 1.2 mi SSE 9.2 mph - N/A   Overcast
2:32 AM 68.0 °F - 68.0 °F 100% 29.78 in 0.8 mi SSE 8.1 mph - N/A   Mist
2:56 AM 69.1 °F - 68.0 °F 96% 29.71 in 0.5 mi SSE 9.2 mph - N/A Fog Fog
3:31 AM 69.1 °F - 69.1 °F 100% 29.77 in 1.5 mi South 12.7 mph - N/A   Overcast
3:41 AM 69.1 °F - 69.1 °F 100% 29.77 in 2.0 mi South 11.5 mph - N/A   Overcast
3:56 AM 69.1 °F - 69.1 °F 100% 29.70 in 3.0 mi South 9.2 mph - N/A   Overcast
4:08 AM 69.1 °F - 69.1 °F 100% 29.75 in 3.0 mi South 6.9 mph - N/A   Overcast
4:31 AM 69.1 °F - 69.1 °F 100% 29.76 in 4.0 mi South 9.2 mph - N/A   Overcast
4:56 AM 69.1 °F - 69.1 °F 100% 29.69 in 5.0 mi South 8.1 mph - N/A   Overcast
5:56 AM 70.0 °F - 68.0 °F 93% 29.70 in 4.0 mi SSE 8.1 mph - N/A   Overcast
6:56 AM 70.0 °F - 68.0 °F 93% 29.70 in 6.0 mi South 9.2 mph - N/A   Overcast
7:56 AM 70.0 °F - 68.0 °F 93% 29.71 in 5.0 mi South 6.9 mph - N/A   Mostly Cloudy
8:06 AM 70.0 °F - 68.0 °F 93% 29.77 in 5.0 mi South 6.9 mph - N/A   Scattered Clouds
8:35 AM 71.1 °F - 68.0 °F 90% 29.78 in 4.0 mi SSE 6.9 mph - N/A   Mostly Cloudy
8:56 AM 72.0 °F - 69.1 °F 91% 29.73 in 5.0 mi SSW 6.9 mph - N/A   Mostly Cloudy
9:56 AM 73.0 °F - 70.0 °F 90% 29.77 in 6.0 mi SSW 10.4 mph - N/A   Overcast
10:13 AM 73.9 °F - 69.1 °F 85% 29.82 in 7.0 mi South 8.1 mph - N/A   Overcast
10:56 AM 77.0 °F - 70.0 °F 79% 29.76 in 8.0 mi SSW 6.9 mph - N/A   Mostly Cloudy
11:07 AM 77.0 °F - 69.1 °F 76% 29.82 in 9.0 mi SSW 6.9 mph - N/A   Scattered Clouds
11:56 AM 81.0 °F 84.4 °F 70.0 °F 69% 29.77 in 10.0 mi Calm Calm - N/A   Clear
12:56 PM 84.9 °F 87.6 °F 66.9 °F 55% 29.75 in 10.0 mi West 9.2 mph - N/A   Clear
1:56 PM 91.9 °F 92.9 °F 63.0 °F 38% 29.72 in 10.0 mi NW 13.8 mph 18.4 mph N/A   Clear
2:56 PM 91.9 °F 92.5 °F 62.1 °F 37% 29.71 in 10.0 mi NW 15.0 mph 21.9 mph N/A   Clear
3:56 PM 91.9 °F 91.2 °F 59.0 °F 33% 29.70 in 10.0 mi NNW 21.9 mph 31.1 mph N/A   Clear
4:56 PM 93.0 °F 91.1 °F 55.0 °F 28% 29.70 in 10.0 mi North 24.2 mph - N/A   Clear
5:56 PM 93.0 °F 90.8 °F 54.0 °F 27% 29.70 in 10.0 mi NNW 13.8 mph 21.9 mph N/A   Clear
6:56 PM 91.0 °F - 52.0 °F 26% 29.71 in 10.0 mi NW 8.1 mph - N/A   Clear
7:56 PM 81.0 °F - 50.0 °F 34% 29.74 in 10.0 mi NNW 8.1 mph - N/A   Clear
8:56 PM 81.0 °F - 39.0 °F 22% 29.77 in 10.0 mi NW 4.6 mph - N/A   Clear
9:56 PM 73.9 °F - 42.1 °F 32% 29.80 in 10.0 mi NW 10.4 mph - N/A   Clear
10:56 PM 71.1 °F - 42.1 °F 35% 29.83 in 10.0 mi NW 6.9 mph - N/A   Clear
11:56 PM 72.0 °F - 45.0 °F 38% 29.86 in 10.0 mi NNE 12.7 mph - N/A   Clear